This is the latest recevied weather packets stored in our database for station/object SQ6XL-13. If no packets are shown the sender has not sent any weather packets the latest 10 day(s).
| Time | Temp. | Humidity | Pressure | Rain* | Wind** | Luminosity | Snow |
|---|---|---|---|---|---|---|---|
| 1777700127 | 10° C | 88% | 1025.3 hPa | 0 mm | - | - | - |
| 1777699597 | 9.44° C | 88% | 1025.4 hPa | 0 mm | - | - | - |
| 1777699022 | 8.33° C | 89% | 1025.3 hPa | 0 mm | - | - | - |
| 1777698477 | 7.22° C | 89% | 1025.3 hPa | 0 mm | - | - | - |
| 1777697937 | 6.11° C | 89% | 1025.2 hPa | 0 mm | - | - | - |
| 1777697417 | 5.56° C | 89% | 1025.2 hPa | 0 mm | - | - | - |
| 1777696931 | 5° C | 88% | 1025.3 hPa | 0 mm | - | - | - |
| 1777696402 | 4.44° C | 88% | 1025.2 hPa | 0 mm | - | - | - |
| 1777695867 | 3.89° C | 88% | 1025.2 hPa | 0 mm | - | - | - |
| 1777695331 | 3.89° C | 88% | 1025.1 hPa | 0 mm | - | - | - |
| 1777694847 | 3.33° C | 88% | 1025.1 hPa | 0 mm | - | - | - |
| 1777694252 | 3.33° C | 88% | 1025.1 hPa | 0 mm | - | - | - |
| 1777693737 | 3.33° C | 88% | 1025 hPa | 0 mm | - | - | - |
| 1777693212 | 3.33° C | 87% | 1025.2 hPa | 0 mm | - | - | - |
| 1777692631 | 3.33° C | 88% | 1025.2 hPa | 0 mm | - | - | - |
| 1777692062 | 3.33° C | 87% | 1025.1 hPa | 0 mm | - | - | - |
| 1777691517 | 3.89° C | 87% | 1025.2 hPa | 0 mm | - | - | - |
| 1777691031 | 3.89° C | 86% | 1025.2 hPa | 0 mm | - | - | - |
| 1777690437 | 3.89° C | 86% | 1025.3 hPa | 0 mm | - | - | - |
| 1777689955 | 3.89° C | 87% | 1025.3 hPa | 0 mm | - | - | - |
| 1777689471 | 3.89° C | 86% | 1025.4 hPa | 0 mm | - | - | - |
| 1777688931 | 3.89° C | 86% | 1025.2 hPa | 0 mm | - | - | - |
| 1777688407 | 3.89° C | 87% | 1025.3 hPa | 0 mm | - | - | - |
| 1777687927 | 3.89° C | 86% | 1025.1 hPa | 0 mm | - | - | - |
| 1777687402 | 4.44° C | 87% | 1025.3 hPa | 0 mm | - | - | - |
* Rain latest hour (hover to see other rain measurements)
** Current wind speed in m/s (hover to see current wind gust speed)